,,,PA_Meas_PMT16A,,PR_Meas_QMR101_102,,RH_Meas_QMH101,,SR_Meas_QMS101,,TA_Meas_QMH101,,GenWind,,GenWind,
date,time,status,PA,status,PR,status,RH,status,SR,status,TA,status,DirAvg,status,SpdAvg,
2010-01-17, 00:00:05,VALID,1002.06,VALID,0,VALID,92.3718,VALID,0,VALID,24.5794,VALID,31,VALID,0,
2010-01-17, 00:01:05,VALID,1002.06,VALID,0,VALID,92.3566,VALID,0,VALID,24.5794,VALID,32,VALID,0,
2010-01-17, 00:02:05,VALID,1002.04,VALID,0,VALID,92.2726,VALID,0,VALID,24.5599,VALID,32,VALID,0,
2010-01-17, 00:03:05,VALID,1002.04,VALID,0,VALID,92.265,VALID,0,VALID,24.5794,VALID,14,VALID,0,
2010-01-17, 00:04:05,VALID,1002.03,VALID,0,VALID,92.2116,VALID,0,VALID,24.5794,VALID,17,VALID,0,
2010-01-17, 00:05:05,VALID,1002.02,VALID,0,VALID,92.1887,VALID,0,VALID,24.5775,VALID,57,VALID,0,
2010-01-17, 00:06:05,VALID,1002.01,VALID,0,VALID,92.0971,VALID,0,VALID,24.5794,VALID,48,VALID,0,
2010-01-17, 00:07:05,VALID,1001.98,VALID,0,VALID,91.9827,VALID,0,VALID,24.5794,VALID,49,VALID,0,
2010-01-17, 00:08:05,VALID,1001.97,VALID,0,VALID,91.8911,VALID,0,VALID,24.5794,VALID,48,VALID,0,
2010-01-17, 00:09:05,VALID,1001.97,VALID,0,VALID,91.8454,VALID,0,VALID,24.5989,VALID,47,VALID,0,
2010-01-17, 00:10:05,VALID,1001.95,VALID,0,VALID,91.8301,VALID,0,VALID,24.5989,VALID,47,VALID,0,
2010-01-17, 00:11:05,VALID,1001.94,VALID,0,VALID,91.8148,VALID,0,VALID,24.6184,VALID,47,VALID,0,
2010-01-17, 00:12:05,VALID,1001.93,VALID,0,VALID,91.8072,VALID,0,VALID,24.6184,VALID,23,VALID,0,
2010-01-17, 00:13:05,VALID,1001.93,VALID,0,VALID,91.7691,VALID,0,VALID,24.5989,VALID,12,VALID,0,
2010-01-17, 00:14:05,VALID,1001.91,VALID,0,VALID,91.7614,VALID,0,VALID,24.5989,VALID,17,VALID,0,
2010-01-17, 00:15:05,VALID,1001.87,VALID,0,VALID,91.8072,VALID,0,VALID,24.5775,VALID,27,VALID,1.0668,
2010-01-17, 00:16:05,VALID,1001.87,VALID,0,VALID,91.8377,VALID,0,VALID,24.5989,VALID,5,VALID,1.50742,
2010-01-17, 00:17:05,VALID,1001.87,VALID,0,VALID,91.8377,VALID,0,VALID,24.5989,VALID,2,VALID,1.68164,
2010-01-17, 00:18:05,VALID,1001.86,VALID,0,VALID,91.7614,VALID,0,VALID,24.5794,VALID,15,VALID,2.20625,
2010-01-17, 00:19:05,VALID,1001.84,VALID,0,VALID,91.7309,VALID,0,VALID,24.5989,VALID,37,VALID,1.64531,
2010-01-17, 00:20:05,VALID,1001.82,VALID,0,VALID,91.7462,VALID,0,VALID,24.5989,VALID,33,VALID,1.8082,
2010-01-17, 00:21:05,VALID,1001.8,VALID,0,VALID,91.7843,VALID,0,VALID,24.5775,VALID,29,VALID,1.04414,
2010-01-17, 00:22:05,VALID,1001.78,VALID,0,VALID,91.4868,VALID,0,VALID,24.5599,VALID,11,VALID,1.8625,
2010-01-17, 00:23:05,VALID,1001.79,VALID,0,VALID,90.9298,VALID,0,VALID,24.5794,VALID,13,VALID,1.29102,
2010-01-17, 00:24:05,VALID,1001.76,VALID,0,VALID,90.9985,VALID,0,VALID,24.638,VALID,28,VALID,0.671875,
2010-01-17, 00:25:05,VALID,1001.74,VALID,0,VALID,90.8459,VALID,0,VALID,24.6184,VALID,45,VALID,0.972266,
2010-01-17, 00:26:05,VALID,1001.76,VALID,0,VALID,90.7467,VALID,0,VALID,24.638,VALID,49,VALID,1.09805,
2010-01-17, 00:27:05,VALID,1001.73,VALID,0,VALID,90.9146,VALID,0,VALID,24.638,VALID,42,VALID,1.05938,
2010-01-17, 00:28:05,VALID,1001.72,VALID,0,VALID,91.0519,VALID,0,VALID,24.6166,VALID,48,VALID,1.00469,
2010-01-17, 00:29:05,VALID,1001.71,VALID,0,VALID,91.0748,VALID,0,VALID,24.638,VALID,50,VALID,1.17578,
2010-01-17, 00:30:05,VALID,1001.69,VALID,0,VALID,91.1587,VALID,0,VALID,24.638,VALID,60,VALID,0.811719,
2010-01-17, 00:31:05,VALID,1001.68,VALID,0,VALID,90.9603,VALID,0,VALID,24.6184,VALID,61,VALID,0.775391,
2010-01-17, 00:32:05,VALID,1001.67,VALID,0,VALID,90.7772,VALID,0,VALID,24.638,VALID,54,VALID,0.991797,
2010-01-17, 00:33:05,VALID,1001.64,VALID,0,VALID,90.7849,VALID,0,VALID,24.6575,VALID,67,VALID,0.760156,
2010-01-17, 00:34:04,VALID,1001.65,VALID,0,VALID,90.7925,VALID,0,VALID,24.6575,VALID,100,VALID,0.678125,
2010-01-17, 00:35:04,VALID,1001.64,VALID,0,VALID,90.9832,VALID,0,VALID,24.677,VALID,90,VALID,0.687109,
2010-01-17, 00:36:04,VALID,1001.62,VALID,0,VALID,91.1129,VALID,0,VALID,24.677,VALID,77,VALID,0.954297,
2010-01-17, 00:37:04,VALID,1001.61,VALID,0,VALID,91.1206,VALID,0,VALID,24.677,VALID,73,VALID,0.6375,
2010-01-17, 00:38:04,VALID,1001.58,VALID,0,VALID,91.1129,VALID,0,VALID,24.6575,VALID,72,VALID,0.884375,
2010-01-17, 00:39:04,VALID,1001.57,VALID,0,VALID,91.0824,VALID,0,VALID,24.6361,VALID,69,VALID,0.746484,
2010-01-17, 00:40:04,VALID,1001.55,VALID,0,VALID,91.0595,VALID,0,VALID,24.6575,VALID,63,VALID,0.808984,
2010-01-17, 00:41:04,VALID,1001.56,VALID,0,VALID,91.0595,VALID,0,VALID,24.677,VALID,71,VALID,0.891797,
2010-01-17, 00:42:04,VALID,1001.49,VALID,0,VALID,91.174,VALID,0,VALID,24.6965,VALID,71,VALID,0.81875,
2010-01-17, 00:43:04,VALID,1001.48,VALID,0,VALID,91.0824,VALID,0,VALID,24.6965,VALID,70,VALID,0.673047,
2010-01-17, 00:44:04,VALID,1001.42,VALID,0,VALID,91.1282,VALID,0,VALID,24.6965,VALID,71,VALID,0.858203,
2010-01-17, 00:45:04,VALID,1001.48,VALID,0,VALID,90.9909,VALID,0,VALID,24.6556,VALID,71,VALID,0.914453,
2010-01-17, 00:46:04,VALID,1001.45,VALID,0,VALID,90.9222,VALID,0,VALID,24.677,VALID,70,VALID,0.580469,
2010-01-17, 00:47:04,VALID,1001.42,VALID,0,VALID,90.8688,VALID,0,VALID,24.677,VALID,77,VALID,0.783984,
2010-01-17, 00:48:04,VALID,1001.41,VALID,0,VALID,90.9603,VALID,0,VALID,24.6575,VALID,85,VALID,0.724219,
2010-01-17, 00:49:04,VALID,1001.42,VALID,0,VALID,91.0061,VALID,0,VALID,24.6575,VALID,101,VALID,0.659375,
2010-01-17, 00:50:04,VALID,1001.41,VALID,0,VALID,91.0748,VALID,0,VALID,24.6575,VALID,101,VALID,0.174219,
2010-01-17, 00:51:04,VALID,1001.37,VALID,0,VALID,91.1511,VALID,0,VALID,24.6575,VALID,101,VALID,0,
2010-01-17, 00:52:04,VALID,1001.38,VALID,0,VALID,91.2655,VALID,0,VALID,24.6575,VALID,101,VALID,0.003125,
2010-01-17, 00:53:04,VALID,1001.35,VALID,0,VALID,91.38,VALID,0,VALID,24.6575,VALID,102,VALID,0.243359,
2010-01-17, 00:54:04,VALID,1001.33,VALID,0,VALID,91.5936,VALID,0,VALID,24.638,VALID,130,VALID,0.73125,
2010-01-17, 00:55:04,VALID,1001.34,VALID,0,VALID,91.6699,VALID,0,VALID,24.6361,VALID,130,VALID,0.503516,
2010-01-17, 00:56:04,VALID,1001.32,VALID,0,VALID,91.6851,VALID,0,VALID,24.638,VALID,132,VALID,0.535937,
2010-01-17, 00:57:04,VALID,1001.32,VALID,0,VALID,91.6699,VALID,0,VALID,24.638,VALID,138,VALID,0.607422,
2010-01-17, 00:58:04,VALID,1001.3,VALID,0,VALID,91.6546,VALID,0,VALID,24.6575,VALID,149,VALID,0.467578,
2010-01-17, 00:59:04,VALID,1001.3,VALID,0,VALID,91.5173,VALID,0,VALID,24.638,VALID,149,VALID,0.517187,
2010-01-17, 01:00:04,VALID,1001.28,VALID,0,VALID,91.4181,VALID,0,VALID,24.638,VALID,149,VALID,0.609766,
2010-01-17, 01:01:04,VALID,1001.22,VALID,0,VALID,91.3418,VALID,0,VALID,24.638,VALID,145,VALID,0.571875,
2010-01-17, 01:02:04,VALID,1001.22,VALID,0,VALID,91.2884,VALID,0,VALID,24.6575,VALID,145,VALID,0.394922,
2010-01-17, 01:03:04,VALID,1001.22,VALID,0,VALID,91.2121,VALID,0,VALID,24.6575,VALID,145,VALID,0.23125,
2010-01-17, 01:04:04,VALID,1001.19,VALID,0,VALID,91.1663,VALID,0,VALID,24.6575,VALID,145,VALID,0,
2010-01-17, 01:05:04,VALID,1001.17,VALID,0,VALID,91.1663,VALID,0,VALID,24.6575,VALID,145,VALID,0,
2010-01-17, 01:06:04,VALID,1001.2,VALID,0,VALID,91.1587,VALID,0,VALID,24.6184,VALID,145,VALID,0,
2010-01-17, 01:07:04,VALID,1001.16,VALID,0,VALID,91.1511,VALID,0,VALID,24.6184,VALID,145,VALID,0,
2010-01-17, 01:08:04,VALID,1001.18,VALID,0,VALID,91.174,VALID,0,VALID,24.6184,VALID,145,VALID,0.0453125,
2010-01-17, 01:09:04,VALID,1001.14,VALID,0,VALID,91.2884,VALID,0,VALID,24.5989,VALID,145,VALID,0.223047,
2010-01-17, 01:10:04,VALID,1001.14,VALID,0,VALID,91.2503,VALID,0,VALID,24.5794,VALID,145,VALID,0.344531,
2010-01-17, 01:11:04,VALID,1001.15,VALID,0,VALID,91.2121,VALID,0,VALID,24.5794,VALID,145,VALID,0.221484,
2010-01-17, 01:12:04,VALID,1001.17,VALID,0,VALID,91.235,VALID,0,VALID,24.5794,VALID,145,VALID,0.239063,
2010-01-17, 01:13:04,VALID,1001.15,VALID,0,VALID,91.2884,VALID,0,VALID,24.5794,VALID,145,VALID,0.243359,
2010-01-17, 01:14:04,VALID,1001.12,VALID,0,VALID,91.4028,VALID,0,VALID,24.6008,VALID,128,VALID,0.349219,
2010-01-17, 01:15:04,VALID,1001.08,VALID,0,VALID,91.4944,VALID,0,VALID,24.5794,VALID,122,VALID,0.853906,
2010-01-17, 01:16:04,VALID,1001.08,VALID,0,VALID,91.5478,VALID,0,VALID,24.5599,VALID,121,VALID,0.894922,
2010-01-17, 01:17:04,VALID,1001.05,VALID,0,VALID,91.5097,VALID,0,VALID,24.5599,VALID,121,VALID,0.996875,
2010-01-17, 01:18:04,VALID,1001.01,VALID,0,VALID,91.5249,VALID,0,VALID,24.5599,VALID,122,VALID,1.05234,
2010-01-17, 01:19:04,VALID,1001,VALID,0,VALID,91.4791,VALID,0,VALID,24.5599,VALID,123,VALID,1.01094,
2010-01-17, 01:20:04,VALID,1000.96,VALID,0,VALID,91.4944,VALID,0,VALID,24.5209,VALID,122,VALID,0.905469,
2010-01-17, 01:21:04,VALID,1000.99,VALID,0,VALID,91.5554,VALID,0,VALID,24.519,VALID,122,VALID,0.744141,
2010-01-17, 01:22:04,VALID,1000.99,VALID,0,VALID,91.5326,VALID,0,VALID,24.5404,VALID,122,VALID,0.532031,
2010-01-17, 01:23:04,VALID,1000.95,VALID,0,VALID,91.5554,VALID,0,VALID,24.5404,VALID,122,VALID,0.398828,
2010-01-17, 01:24:04,VALID,1000.94,VALID,0,VALID,91.586,VALID,0,VALID,24.5013,VALID,122,VALID,0.326953,
2010-01-17, 01:25:04,VALID,1000.91,VALID,0,VALID,91.6165,VALID,0,VALID,24.5209,VALID,119,VALID,0.330469,
2010-01-17, 01:26:04,VALID,1000.9,VALID,0,VALID,91.6241,VALID,0,VALID,24.4818,VALID,44,VALID,0.557813,
2010-01-17, 01:27:04,VALID,1000.84,VALID,0,VALID,91.6928,VALID,0,VALID,24.4818,VALID,30,VALID,0.613672,
2010-01-17, 01:28:04,VALID,1000.83,VALID,0,VALID,91.7385,VALID,0,VALID,24.4428,VALID,30,VALID,0.385156,
2010-01-17, 01:29:04,VALID,1000.83,VALID,0,VALID,91.8301,VALID,0,VALID,24.4428,VALID,29,VALID,0.499219,
2010-01-17, 01:30:04,VALID,1000.86,VALID,0,VALID,91.8835,VALID,0,VALID,24.4233,VALID,4,VALID,0.598047,
2010-01-17, 01:31:04,VALID,1000.85,VALID,0,VALID,91.8759,VALID,0,VALID,24.3842,VALID,360,VALID,0.719141,
2010-01-17, 01:32:04,VALID,1000.87,VALID,0,VALID,91.9522,VALID,0,VALID,24.3842,VALID,341,VALID,0.537109,
2010-01-17, 01:33:04,VALID,1000.89,VALID,0,VALID,91.9751,VALID,0,VALID,24.4037,VALID,341,VALID,0.45625,
2010-01-17, 01:34:04,VALID,1000.9,VALID,0,VALID,92.0437,VALID,0,VALID,24.4251,VALID,320,VALID,0.588281,
2010-01-17, 01:35:04,VALID,1000.89,VALID,0,VALID,92.0819,VALID,0,VALID,24.4233,VALID,313,VALID,0.526953,
2010-01-17, 01:36:04,VALID,1000.91,VALID,0,VALID,92.1658,VALID,0,VALID,24.4428,VALID,318,VALID,0.713281,
2010-01-17, 01:37:04,VALID,1000.88,VALID,0,VALID,92.2116,VALID,0,VALID,24.4428,VALID,13,VALID,0.937109,
2010-01-17, 01:38:04,VALID,1000.9,VALID,0,VALID,92.0361,VALID,0,VALID,24.4233,VALID,35,VALID,1.0375,
2010-01-17, 01:39:04,VALID,1000.91,VALID,0,VALID,92.204,VALID,0,VALID,24.5032,VALID,224,VALID,1.6293,
2010-01-17, 01:40:04,VALID,1000.91,VALID,0,VALID,92.2268,VALID,0,VALID,24.5013,VALID,219,VALID,1.1957,
2010-01-17, 01:41:04,VALID,1000.9,VALID,0,VALID,92.1887,VALID,0,VALID,24.5209,VALID,228,VALID,0.936719,
2010-01-17, 01:42:04,VALID,1000.88,VALID,0,VALID,92.1963,VALID,0,VALID,24.5404,VALID,218,VALID,0.583594,
2010-01-17, 01:43:04,VALID,1000.81,VALID,0,VALID,92.1734,VALID,0,VALID,24.5404,VALID,219,VALID,0.0808594,
2010-01-17, 01:44:04,VALID,1000.82,VALID,0,VALID,92.12,VALID,0,VALID,24.5209,VALID,219,VALID,0.00234375,
2010-01-17, 01:45:04,VALID,1000.8,VALID,0,VALID,92.0895,VALID,0,VALID,24.5209,VALID,181,VALID,0.607422,
2010-01-17, 01:46:04,VALID,1000.76,VALID,0,VALID,91.8835,VALID,0,VALID,24.4818,VALID,184,VALID,0.132422,
2010-01-17, 01:47:04,VALID,1000.76,VALID,0,VALID,91.8377,VALID,0,VALID,24.4818,VALID,184,VALID,0.178125,
2010-01-17, 01:48:04,VALID,1000.77,VALID,0,VALID,91.853,VALID,0,VALID,24.5013,VALID,184,VALID,0,
2010-01-17, 01:49:04,VALID,1000.76,VALID,0,VALID,91.8988,VALID,0,VALID,24.5013,VALID,184,VALID,0,
2010-01-17, 01:50:04,VALID,1000.72,VALID,0,VALID,91.8835,VALID,0,VALID,24.5209,VALID,184,VALID,0,
2010-01-17, 01:51:04,VALID,1000.73,VALID,0,VALID,91.8301,VALID,0,VALID,24.4818,VALID,184,VALID,0,
2010-01-17, 01:52:04,VALID,1000.71,VALID,0,VALID,91.7538,VALID,0,VALID,24.4818,VALID,184,VALID,0.159375,
2010-01-17, 01:53:04,VALID,1000.74,VALID,0,VALID,91.6394,VALID,0,VALID,24.4623,VALID,155,VALID,0.609375,
2010-01-17, 01:54:04,VALID,1000.73,VALID,0,VALID,91.4486,VALID,0,VALID,24.4623,VALID,148,VALID,0.782031,
2010-01-17, 01:55:04,VALID,1000.71,VALID,0,VALID,91.4334,VALID,0,VALID,24.4818,VALID,181,VALID,0.792578,
2010-01-17, 01:56:04,VALID,1000.7,VALID,0,VALID,91.4257,VALID,0,VALID,24.5013,VALID,167,VALID,1.10781,
2010-01-17, 01:57:04,VALID,1000.69,VALID,0,VALID,91.235,VALID,0,VALID,24.5013,VALID,161,VALID,0.570703,
2010-01-17, 01:58:04,VALID,1000.66,VALID,0,VALID,91.09,VALID,0,VALID,24.5013,VALID,178,VALID,0.708203,
2010-01-17, 01:59:04,VALID,1000.65,VALID,0,VALID,91.0595,VALID,0,VALID,24.5209,VALID,183,VALID,1.45234,
2010-01-17, 02:00:04,VALID,1000.64,VALID,0,VALID,90.9985,VALID,0,VALID,24.5404,VALID,222,VALID,0.860156,
2010-01-17, 02:01:04,VALID,1000.58,VALID,0,VALID,90.5026,VALID,0,VALID,24.5209,VALID,244,VALID,1.82148,
2010-01-17, 02:02:04,VALID,1000.58,VALID,0,VALID,90.1897,VALID,0,VALID,24.5209,VALID,204,VALID,1.23203,
2010-01-17, 02:03:04,VALID,1000.55,VALID,0,VALID,90.1668,VALID,0,VALID,24.5599,VALID,213,VALID,0.780469,
2010-01-17, 02:04:04,VALID,1000.54,VALID,0,VALID,89.648,VALID,0,VALID,24.5404,VALID,197,VALID,1.37969,
2010-01-17, 02:05:04,VALID,1000.51,VALID,0,VALID,89.2284,VALID,0,VALID,24.4995,VALID,189,VALID,1.31328,
2010-01-17, 02:06:04,VALID,1000.5,VALID,0,VALID,89.3123,VALID,0,VALID,24.5404,VALID,220,VALID,0.582812,
2010-01-17, 02:07:04,VALID,1000.47,VALID,0,VALID,89.2818,VALID,0,VALID,24.5209,VALID,201,VALID,0.905469,
2010-01-17, 02:08:04,VALID,1000.46,VALID,0,VALID,89.32,VALID,0,VALID,24.48,VALID,214,VALID,1.15742,
2010-01-17, 02:09:04,VALID,1000.43,VALID,0,VALID,89.0758,VALID,0,VALID,24.5013,VALID,276,VALID,0.795313,
2010-01-17, 02:10:04,VALID,1000.47,VALID,0,VALID,88.5646,VALID,0,VALID,24.4818,VALID,281,VALID,0.18125,
2010-01-17, 02:11:04,VALID,1000.43,VALID,0,VALID,88.9919,VALID,0,VALID,24.5013,VALID,224,VALID,0.317187,
2010-01-17, 02:12:04,VALID,1000.45,VALID,0,VALID,89.1521,VALID,0,VALID,24.4818,VALID,224,VALID,0.394922,
2010-01-17, 02:13:04,VALID,1000.45,VALID,0,VALID,89.2132,VALID,0,VALID,24.4818,VALID,224,VALID,0,
2010-01-17, 02:14:04,VALID,1000.42,VALID,0,VALID,89.4954,VALID,0,VALID,24.4428,VALID,243,VALID,0.297656,
2010-01-17, 02:15:04,VALID,1000.41,VALID,0,VALID,89.8388,VALID,0,VALID,24.4428,VALID,249,VALID,0.276563,
2010-01-17, 02:16:04,VALID,1000.39,VALID,0,VALID,89.9685,VALID,0,VALID,24.4037,VALID,349,VALID,0.608984,
2010-01-17, 02:17:04,VALID,1000.35,VALID,0,VALID,89.5336,VALID,0,VALID,24.3647,VALID,357,VALID,0.744531,
2010-01-17, 02:18:04,VALID,1000.34,VALID,0,VALID,89.9609,VALID,0,VALID,24.3647,VALID,357,VALID,0.705859,
2010-01-17, 02:19:04,VALID,1000.33,VALID,0,VALID,90.06,VALID,0,VALID,24.3433,VALID,4,VALID,0.819922,
2010-01-17, 02:20:04,VALID,1000.33,VALID,0,VALID,90.2889,VALID,0,VALID,24.3452,VALID,13,VALID,0.871094,
2010-01-17, 02:21:04,VALID,1000.3,VALID,0,VALID,90.35,VALID,0,VALID,24.3257,VALID,22,VALID,0.665625,
2010-01-17, 02:22:04,VALID,1000.28,VALID,0,VALID,90.5102,VALID,0,VALID,24.3257,VALID,22,VALID,0.724609,
2010-01-17, 02:23:04,VALID,1000.28,VALID,0,VALID,90.5254,VALID,0,VALID,24.3062,VALID,22,VALID,0.615625,
2010-01-17, 02:24:04,VALID,1000.27,VALID,0,VALID,90.7696,VALID,0,VALID,24.3062,VALID,22,VALID,0.667188,
2010-01-17, 02:25:04,VALID,1000.27,VALID,0,VALID,90.8001,VALID,0,VALID,24.2671,VALID,22,VALID,0.666797,
2010-01-17, 02:26:04,VALID,1000.26,VALID,0,VALID,90.8611,VALID,0,VALID,24.2671,VALID,22,VALID,0.535156,
2010-01-17, 02:27:04,VALID,1000.22,VALID,0,VALID,90.9374,VALID,0,VALID,24.2476,VALID,22,VALID,0.592969,
2010-01-17, 02:28:04,VALID,1000.23,VALID,0,VALID,91.0214,VALID,0,VALID,24.2281,VALID,22,VALID,0.658594,
2010-01-17, 02:29:04,VALID,1000.22,VALID,0,VALID,91.0977,VALID,0,VALID,24.2086,VALID,22,VALID,0.633984,
2010-01-17, 02:30:04,VALID,1000.23,VALID,0,VALID,91.2426,VALID,0,VALID,24.1891,VALID,43,VALID,0.794922,
2010-01-17, 02:31:04,VALID,1000.24,VALID,0,VALID,91.3189,VALID,0,VALID,24.1891,VALID,49,VALID,0.868359,
2010-01-17, 02:32:04,VALID,1000.23,VALID,0,VALID,91.296,VALID,0,VALID,24.1891,VALID,49,VALID,0.867188,
2010-01-17, 02:33:04,VALID,1000.2,VALID,0,VALID,91.2731,VALID,0,VALID,24.1891,VALID,49,VALID,0.684375,
2010-01-17, 02:34:04,VALID,1000.2,VALID,0,VALID,91.2731,VALID,0,VALID,24.1872,VALID,49,VALID,0.669922,
2010-01-17, 02:35:04,VALID,1000.2,VALID,0,VALID,91.2426,VALID,0,VALID,24.2086,VALID,49,VALID,0.447266,
2010-01-17, 02:36:04,VALID,1000.18,VALID,0,VALID,91.3494,VALID,0,VALID,24.2299,VALID,49,VALID,0.561328,
2010-01-17, 02:37:04,VALID,1000.18,VALID,0,VALID,91.4563,VALID,0,VALID,24.2281,VALID,54,VALID,0.596484,
2010-01-17, 02:38:04,VALID,1000.18,VALID,0,VALID,91.4715,VALID,0,VALID,24.2281,VALID,61,VALID,0.550391,
2010-01-17, 02:39:04,VALID,1000.17,VALID,0,VALID,91.5554,VALID,0,VALID,24.2067,VALID,82,VALID,0.561328,
2010-01-17, 02:40:04,VALID,1000.16,VALID,0,VALID,91.5783,VALID,0,VALID,24.2086,VALID,89,VALID,0.709375,
2010-01-17, 02:41:04,VALID,1000.16,VALID,0,VALID,91.6317,VALID,0,VALID,24.2086,VALID,94,VALID,0.7375,
2010-01-17, 02:42:04,VALID,1000.17,VALID,0,VALID,91.7157,VALID,0,VALID,24.1891,VALID,94,VALID,0.804688,
2010-01-17, 02:43:04,VALID,1000.18,VALID,0,VALID,91.8225,VALID,0,VALID,24.1891,VALID,94,VALID,0.621875,
2010-01-17, 02:44:04,VALID,1000.16,VALID,0,VALID,91.8911,VALID,0,VALID,24.1696,VALID,94,VALID,0.4125,
2010-01-17, 02:45:04,VALID,1000.15,VALID,0,VALID,91.9369,VALID,0,VALID,24.1696,VALID,92,VALID,0.371875,
2010-01-17, 02:46:04,VALID,1000.16,VALID,0,VALID,91.9674,VALID,0,VALID,24.15,VALID,89,VALID,0.421875,
2010-01-17, 02:47:04,VALID,1000.13,VALID,0,VALID,91.9827,VALID,0,VALID,24.1305,VALID,80,VALID,0.616797,
2010-01-17, 02:48:04,VALID,1000.12,VALID,0,VALID,91.9827,VALID,0,VALID,24.15,VALID,77,VALID,0.753906,
2010-01-17, 02:49:04,VALID,1000.1,VALID,0,VALID,91.9827,VALID,0,VALID,24.1305,VALID,76,VALID,0.6625,
2010-01-17, 02:50:04,VALID,1000.09,VALID,0,VALID,92.0056,VALID,0,VALID,24.1092,VALID,74,VALID,0.348437,
2010-01-17, 02:51:04,VALID,1000.09,VALID,0,VALID,92.0361,VALID,0,VALID,24.111,VALID,74,VALID,0.0546875,
2010-01-17, 02:52:04,VALID,1000.07,VALID,0,VALID,92.0666,VALID,0,VALID,24.0897,VALID,74,VALID,0.23125,
2010-01-17, 02:53:04,VALID,1000.06,VALID,0,VALID,92.0819,VALID,0,VALID,24.0915,VALID,74,VALID,0.310937,
2010-01-17, 02:54:04,VALID,1000.07,VALID,0,VALID,92.1506,VALID,0,VALID,24.0701,VALID,78,VALID,0.367188,
2010-01-17, 02:55:04,VALID,1000.09,VALID,0,VALID,92.1963,VALID,0,VALID,24.0506,VALID,83,VALID,0.443359,
2010-01-17, 02:56:04,VALID,1000.1,VALID,0,VALID,92.2116,VALID,0,VALID,24.072,VALID,83,VALID,0.1125,
2010-01-17, 02:57:04,VALID,1000.08,VALID,0,VALID,92.2497,VALID,0,VALID,24.0506,VALID,83,VALID,0,
2010-01-17, 02:58:04,VALID,1000.06,VALID,0,VALID,92.2803,VALID,0,VALID,24.0506,VALID,83,VALID,0,
2010-01-17, 02:59:04,VALID,1000.04,VALID,0,VALID,92.3108,VALID,0,VALID,24.0525,VALID,100,VALID,0,
2010-01-17, 03:00:04,VALID,1000,VALID,0,VALID,92.3413,VALID,0,VALID,24.0525,VALID,100,VALID,0,
2010-01-17, 03:01:04,VALID,1000.01,VALID,0,VALID,92.326,VALID,0,VALID,24.0134,VALID,124,VALID,0,
2010-01-17, 03:02:04,VALID,1000,VALID,0,VALID,92.3871,VALID,0,VALID,24.0311,VALID,133,VALID,0,
2010-01-17, 03:03:04,VALID,999.995,VALID,0,VALID,92.3718,VALID,0,VALID,24.0329,VALID,136,VALID,0,
2010-01-17, 03:04:04,VALID,999.981,VALID,0,VALID,92.3642,VALID,0,VALID,24.0116,VALID,136,VALID,0,
2010-01-17, 03:05:04,VALID,999.954,VALID,0,VALID,92.3489,VALID,0,VALID,24.0329,VALID,136,VALID,0,
2010-01-17, 03:06:04,VALID,999.949,VALID,0,VALID,92.3413,VALID,0,VALID,24.0329,VALID,136,VALID,0,
2010-01-17, 03:07:04,VALID,999.949,VALID,0,VALID,92.326,VALID,0,VALID,24.0329,VALID,136,VALID,0,
2010-01-17, 03:08:04,VALID,999.953,VALID,0,VALID,92.3413,VALID,0,VALID,24.0329,VALID,136,VALID,0,
2010-01-17, 03:09:04,VALID,999.912,VALID,0,VALID,92.3031,VALID,0,VALID,24.0116,VALID,136,VALID,0,
2010-01-17, 03:10:04,VALID,999.867,VALID,0,VALID,92.2879,VALID,0,VALID,24.0116,VALID,73,VALID,0,
2010-01-17, 03:11:04,VALID,999.851,VALID,0,VALID,92.2803,VALID,0,VALID,23.9921,VALID,73,VALID,0,
2010-01-17, 03:12:04,VALID,999.839,VALID,0,VALID,92.2421,VALID,0,VALID,23.9921,VALID,73,VALID,0,
2010-01-17, 03:13:04,VALID,999.836,VALID,0,VALID,92.265,VALID,0,VALID,23.9939,VALID,75,VALID,0,
2010-01-17, 03:14:04,VALID,999.807,VALID,0,VALID,92.1734,VALID,0,VALID,23.9531,VALID,79,VALID,0.853125,
2010-01-17, 03:15:04,VALID,999.818,VALID,0,VALID,92.1353,VALID,0,VALID,23.914,VALID,77,VALID,0.853125,
2010-01-17, 03:16:04,VALID,999.821,VALID,0,VALID,92.1582,VALID,0,VALID,23.9354,VALID,80,VALID,0.473437,
2010-01-17, 03:17:04,VALID,999.846,VALID,0,VALID,92.2192,VALID,0,VALID,23.9159,VALID,79,VALID,0.710547,
2010-01-17, 03:18:04,VALID,999.854,VALID,0,VALID,92.1963,VALID,0,VALID,23.9159,VALID,71,VALID,0.483203,
2010-01-17, 03:19:04,VALID,999.861,VALID,0,VALID,92.1811,VALID,0,VALID,23.875,VALID,71,VALID,0.517969,
2010-01-17, 03:20:04,VALID,999.859,VALID,0,VALID,92.2574,VALID,0,VALID,23.8768,VALID,60,VALID,0.728906,
2010-01-17, 03:21:04,VALID,999.844,VALID,0,VALID,92.3413,VALID,0,VALID,23.8555,VALID,54,VALID,0.589844,
2010-01-17, 03:22:04,VALID,999.884,VALID,0,VALID,92.41,VALID,0,VALID,23.8573,VALID,52,VALID,0.657031,
2010-01-17, 03:23:04,VALID,999.856,VALID,0,VALID,92.4634,VALID,0,VALID,23.836,VALID,52,VALID,0.474219,
2010-01-17, 03:24:04,VALID,999.866,VALID,0,VALID,92.4939,VALID,0,VALID,23.8378,VALID,52,VALID,0.406641,
2010-01-17, 03:25:04,VALID,999.859,VALID,0,VALID,92.5778,VALID,0,VALID,23.8378,VALID,52,VALID,0.43125,
2010-01-17, 03:26:04,VALID,999.855,VALID,0,VALID,92.6541,VALID,0,VALID,23.8183,VALID,52,VALID,0.294922,
2010-01-17, 03:27:04,VALID,999.877,VALID,0,VALID,92.7304,VALID,0,VALID,23.8165,VALID,52,VALID,0.0898438,
2010-01-17, 03:28:04,VALID,999.876,VALID,0,VALID,92.7838,VALID,0,VALID,23.8183,VALID,52,VALID,0,
2010-01-17, 03:29:04,VALID,999.858,VALID,0,VALID,92.7914,VALID,0.112286,VALID,23.8183,VALID,52,VALID,0,
2010-01-17, 03:30:04,VALID,999.846,VALID,0,VALID,92.822,VALID,0,VALID,23.7988,VALID,52,VALID,0,
2010-01-17, 03:31:04,VALID,999.849,VALID,0,VALID,92.8296,VALID,0,VALID,23.7793,VALID,52,VALID,0,
2010-01-17, 03:32:04,VALID,999.853,VALID,0,VALID,92.8677,VALID,0,VALID,23.7793,VALID,52,VALID,0,
2010-01-17, 03:33:04,VALID,999.844,VALID,0,VALID,92.8983,VALID,0,VALID,23.7579,VALID,52,VALID,0,
2010-01-17, 03:34:04,VALID,999.879,VALID,0,VALID,92.9364,VALID,0,VALID,23.7793,VALID,52,VALID,0,
2010-01-17, 03:35:04,VALID,999.87,VALID,0,VALID,92.9517,VALID,0,VALID,23.7597,VALID,52,VALID,0,
2010-01-17, 03:36:04,VALID,999.924,VALID,0,VALID,93.0051,VALID,0,VALID,23.7597,VALID,52,VALID,0,
2010-01-17, 03:37:04,VALID,999.938,VALID,0,VALID,93.028,VALID,0,VALID,23.7597,VALID,52,VALID,0,
2010-01-17, 03:38:04,VALID,999.987,VALID,0,VALID,93.028,VALID,0,VALID,23.7402,VALID,52,VALID,0.0703125,
2010-01-17, 03:39:04,VALID,1000.03,VALID,0,VALID,93.0127,VALID,0,VALID,23.7402,VALID,52,VALID,0,
2010-01-17, 03:40:04,VALID,1000.05,VALID,0,VALID,93.0203,VALID,0,VALID,23.7207,VALID,52,VALID,0.106641,
2010-01-17, 03:41:04,VALID,1000.07,VALID,0,VALID,93.0356,VALID,0,VALID,23.7402,VALID,53,VALID,0.196484,
2010-01-17, 03:42:04,VALID,1000.07,VALID,0,VALID,93.0661,VALID,0,VALID,23.7189,VALID,53,VALID,0,
2010-01-17, 03:43:04,VALID,1000.09,VALID,0,VALID,93.0737,VALID,0,VALID,23.7207,VALID,53,VALID,0,
2010-01-17, 03:44:04,VALID,1000.12,VALID,0,VALID,93.0356,VALID,0,VALID,23.7207,VALID,53,VALID,0,
2010-01-17, 03:45:04,VALID,1000.1,VALID,0,VALID,93.0508,VALID,0,VALID,23.7402,VALID,53,VALID,0,
2010-01-17, 03:46:04,VALID,1000.12,VALID,0,VALID,93.0508,VALID,0,VALID,23.7402,VALID,53,VALID,0,
2010-01-17, 03:47:04,VALID,1000.12,VALID,0,VALID,93.0356,VALID,0,VALID,23.7207,VALID,53,VALID,0,
2010-01-17, 03:48:04,VALID,1000.11,VALID,0,VALID,93.0356,VALID,0,VALID,23.7207,VALID,53,VALID,0,
2010-01-17, 03:49:04,VALID,1000.14,VALID,0,VALID,93.0203,VALID,0,VALID,23.7207,VALID,53,VALID,0,
2010-01-17, 03:50:04,VALID,1000.16,VALID,0,VALID,93.0051,VALID,0,VALID,23.7012,VALID,53,VALID,0,